﻿_id,日時,平均風速(m/s),平均風向,最大瞬間風速(m/s),最大風速時風向,気温(℃),湿度(%),10分間移動積算雨量(mm),1時間移動積算雨量(mm),日雨量(mm),累計雨量(mm)
1,2021-02-15T00:00:00,0.9,東,1.9,東北東,9.8,94.8,0,1,1,1
2,2021-02-15T00:01:00,1,東,1.9,東北東,9.8,94.9,0,1,0,1
3,2021-02-15T00:02:00,1,東,1.9,東北東,9.8,95,0,1,0,1
4,2021-02-15T00:03:00,1,東,1.9,東北東,9.8,95.1,0,1,0,1
5,2021-02-15T00:04:00,1,東,1.9,東北東,9.9,95.1,0,1,0,1
6,2021-02-15T00:05:00,0.9,東,1.9,東北東,9.9,95.2,0,1,0,1
7,2021-02-15T00:06:00,0.8,東,1.5,東北東,9.8,95.2,0,1,0,1
8,2021-02-15T00:07:00,0.8,東南東,1.3,東,9.8,95.2,0,1,0,1
9,2021-02-15T00:08:00,0.8,東南東,1.3,東,9.8,95.3,0,1,0,1
10,2021-02-15T00:09:00,0.8,東南東,1.3,東,9.9,95.3,0,1,0,1
11,2021-02-15T00:10:00,0.8,東南東,1.3,東,9.8,95.3,0,1,0,1
12,2021-02-15T00:11:00,0.8,東南東,1.3,東,9.8,95.3,0,1,0,1
13,2021-02-15T00:12:00,0.7,東南東,1.2,東,9.9,95.4,0,1,0,1
14,2021-02-15T00:13:00,0.7,東南東,1.3,東,9.8,95.4,0,1,0,1
15,2021-02-15T00:14:00,0.8,東南東,1.7,東,9.8,95.4,0.5,1.5,0.5,1.5
16,2021-02-15T00:15:00,0.8,東南東,1.7,東,9.8,95.4,0.5,1.5,0.5,1.5
17,2021-02-15T00:16:00,0.8,東南東,1.7,東,9.9,95.5,0.5,1.5,0.5,1.5
18,2021-02-15T00:17:00,0.9,東,1.7,東,9.8,95.4,0.5,1.5,0.5,1.5
19,2021-02-15T00:18:00,0.9,東,1.7,東,9.8,95.4,0.5,1.5,0.5,1.5
20,2021-02-15T00:19:00,0.9,東,1.7,東,9.8,95.4,0.5,1.5,0.5,1.5
21,2021-02-15T00:20:00,0.8,東,1.7,東,9.8,95.5,0.5,1.5,0.5,1.5
22,2021-02-15T00:21:00,0.8,東,1.7,東,9.7,95.4,0.5,1.5,0.5,1.5
23,2021-02-15T00:22:00,0.8,東,1.7,東,9.7,95.4,0.5,1,0.5,1.5
24,2021-02-15T00:23:00,0.8,東,1.7,東,9.7,95.4,0.5,1,0.5,1.5
25,2021-02-15T00:24:00,0.7,東北東,1.6,東北東,9.7,95.5,0,1,0.5,1.5
26,2021-02-15T00:25:00,0.6,東北東,1.6,東北東,9.7,95.5,0,1,0.5,1.5
27,2021-02-15T00:26:00,0.5,東北東,1.6,東北東,9.7,95.6,0,1,0.5,1.5
28,2021-02-15T00:27:00,0.5,東北東,1.4,東北東,9.7,95.6,0,1,0.5,1.5
29,2021-02-15T00:28:00,0.4,東北東,1,東北東,9.7,95.7,0,1,0.5,1.5
30,2021-02-15T00:29:00,0.4,東北東,1,東北東,9.8,95.8,0,1,0.5,1.5
31,2021-02-15T00:30:00,0.4,東北東,0.9,東北東,9.7,95.7,0,1,0.5,1.5
32,2021-02-15T00:31:00,0.4,東北東,0.9,東北東,9.7,95.7,0,1,0.5,1.5
33,2021-02-15T00:32:00,0.3,東北東,0.9,東北東,9.7,95.8,0,1,0.5,1.5
34,2021-02-15T00:33:00,0.3,東北東,0.9,東北東,9.7,95.8,0,1,0.5,1.5
35,2021-02-15T00:34:00,0.3,東北東,0.7,東北東,9.8,95.8,0,1,0.5,1.5
36,2021-02-15T00:35:00,0.3,東,0.7,東北東,9.8,95.8,0,1,0.5,1.5
37,2021-02-15T00:36:00,0.4,東,0.7,東北東,9.8,95.9,0,1,0.5,1.5
38,2021-02-15T00:37:00,0.4,東,1,東,9.8,95.9,0,1,0.5,1.5
39,2021-02-15T00:38:00,0.4,東,1,東,9.8,95.9,0,0.5,0.5,1.5
40,2021-02-15T00:39:00,0.5,東,1,東,9.8,95.9,0,0.5,0.5,1.5
41,2021-02-15T00:40:00,0.5,東南東,1,東,9.7,95.8,0,0.5,0.5,1.5
42,2021-02-15T00:41:00,0.5,東南東,1,東,9.8,95.8,0,0.5,0.5,1.5
43,2021-02-15T00:42:00,0.6,東南東,1,東,9.7,95.8,0,0.5,0.5,1.5
44,2021-02-15T00:43:00,0.6,東南東,1,東,9.8,95.9,0,0.5,0.5,1.5
45,2021-02-15T00:44:00,0.6,東南東,1,東,9.8,95.9,0,0.5,0.5,1.5
46,2021-02-15T00:45:00,0.6,東南東,1,東,9.8,96,0,0.5,0.5,1.5
47,2021-02-15T00:46:00,0.6,東南東,1,東,10.2,96.2,0,0.5,0.5,1.5
48,2021-02-15T00:47:00,0.6,東南東,1,北東,10,96.4,0,0.5,0.5,1.5
49,2021-02-15T00:48:00,0.5,東,1,北東,9.8,95.9,0,0.5,0.5,1.5
50,2021-02-15T00:49:00,0.4,東,1,北東,9.8,95.8,0,0.5,0.5,1.5
51,2021-02-15T00:50:00,0.4,東,1,北東,9.8,95.9,0,0.5,0.5,1.5
52,2021-02-15T00:51:00,0.3,東,1,北東,9.8,95.9,0.5,1,1,2
53,2021-02-15T00:52:00,0.2,静穏,1,北東,9.9,95.9,0.5,1,1,2
54,2021-02-15T00:53:00,0.2,静穏,1,北東,9.9,96,0.5,1,1,2
55,2021-02-15T00:54:00,0.2,静穏,1,北東,9.9,96,0.5,1,1,2
56,2021-02-15T00:55:00,0.1,静穏,1,北東,9.9,96.1,0.5,1,1,2
57,2021-02-15T00:56:00,0.1,静穏,1,北東,9.8,95.9,0.5,1,1,2
58,2021-02-15T00:57:00,0.1,静穏,0.8,南東,9.8,95.8,0.5,1,1,2
59,2021-02-15T00:58:00,0.1,静穏,0.8,南東,9.8,95.9,0.5,1,1,2
60,2021-02-15T00:59:00,0.2,静穏,0.8,南東,9.8,96,0.5,1,1,2
61,2021-02-15T01:00:00,0.2,静穏,0.8,南東,9.9,96,0.5,1,1,2
62,2021-02-15T01:01:00,0.3,南東,0.8,南東,9.8,96,0,1,1,2
63,2021-02-15T01:02:00,0.3,南東,0.8,南東,9.8,96,0,1,1,2
64,2021-02-15T01:03:00,0.4,南東,0.8,南東,10.1,96.4,0,1,1,2
65,2021-02-15T01:04:00,0.4,南東,0.8,南東,10,96.3,0,1,1,2
66,2021-02-15T01:05:00,0.4,南東,0.8,南東,9.9,96.1,0,1,1,2
67,2021-02-15T01:06:00,0.4,南東,0.8,南東,9.9,95.9,0,1,1,2
68,2021-02-15T01:07:00,0.4,東南東,0.8,東,9.8,95.9,0,1,1,2
69,2021-02-15T01:08:00,0.3,東南東,0.8,東,9.8,95.9,0,1,1,2
70,2021-02-15T01:09:00,0.3,東南東,0.8,東,9.8,96,0,1,1,2
71,2021-02-15T01:10:00,0.2,静穏,0.7,東南東,9.8,96,0,1,1,2
72,2021-02-15T01:11:00,0.2,静穏,0.7,東南東,9.8,96,0,1,1,2
73,2021-02-15T01:12:00,0.1,静穏,0.7,東南東,10,96.2,0,1,1,2
74,2021-02-15T01:13:00,0.1,静穏,0.5,北東,9.9,96.2,0,1,1,2
75,2021-02-15T01:14:00,0.1,静穏,0.5,北東,9.8,96,0,0.5,1,2
76,2021-02-15T01:15:00,0.1,静穏,0.5,北東,9.8,96,0.5,1,1.5,2.5
77,2021-02-15T01:16:00,0.1,静穏,0.5,北東,9.8,96,0.5,1,1.5,2.5
78,2021-02-15T01:17:00,0.2,静穏,0.5,北東,9.8,96.1,0.5,1,1.5,2.5
79,2021-02-15T01:18:00,0.2,静穏,0.5,北東,9.8,96.1,0.5,1,1.5,2.5
80,2021-02-15T01:19:00,0.2,静穏,0.5,北東,9.8,96.1,0.5,1,1.5,2.5
81,2021-02-15T01:20:00,0.2,静穏,0.5,北東,9.9,96.2,0.5,1,1.5,2.5
82,2021-02-15T01:21:00,0.2,静穏,1.1,南南東,9.9,96.2,0.5,1,1.5,2.5
83,2021-02-15T01:22:00,0.3,東,1.1,南南東,9.9,96.3,0.5,1,1.5,2.5
84,2021-02-15T01:23:00,0.4,東,1.1,南南東,9.9,96.1,0.5,1,1.5,2.5
85,2021-02-15T01:24:00,0.4,東南東,1.1,南南東,9.8,96.1,0.5,1,1.5,2.5
86,2021-02-15T01:25:00,0.5,東南東,1.1,南南東,9.8,96,0,1,1.5,2.5
87,2021-02-15T01:26:00,0.6,東南東,1.2,南東,9.8,96.1,0,1,1.5,2.5
88,2021-02-15T01:27:00,0.6,東南東,1.3,南東,9.8,96.1,0,1,1.5,2.5
89,2021-02-15T01:28:00,0.7,南東,1.3,南東,9.8,96.1,0,1,1.5,2.5
90,2021-02-15T01:29:00,0.8,南東,1.3,南東,9.8,96.2,0,1,1.5,2.5
91,2021-02-15T01:30:00,0.9,南東,1.3,南東,9.8,96.2,0,1,1.5,2.5
92,2021-02-15T01:31:00,0.9,南東,1.3,南東,10,96.5,0.5,1.5,2,3
93,2021-02-15T01:32:00,0.9,南東,1.3,南東,10,96.5,0.5,1.5,2,3
94,2021-02-15T01:33:00,0.9,南東,1.3,南東,9.9,96.3,0.5,1.5,2,3
95,2021-02-15T01:34:00,0.9,南東,1.3,南東,9.8,96.2,0.5,1.5,2,3
96,2021-02-15T01:35:00,0.8,南東,1.3,南東,9.9,96.2,0.5,1.5,2,3
97,2021-02-15T01:36:00,0.8,南東,1.3,南東,9.8,96.2,0.5,1.5,2,3
98,2021-02-15T01:37:00,0.8,南東,1.3,南東,9.8,96.2,0.5,1.5,2,3
99,2021-02-15T01:38:00,0.8,東南東,1.2,南南東,9.9,96.3,0.5,1.5,2,3
100,2021-02-15T01:39:00,0.7,東南東,1.2,南南東,9.9,96.3,0.5,1.5,2,3
101,2021-02-15T01:40:00,0.6,東南東,1.1,東南東,9.9,96.3,0.5,1.5,2,3
102,2021-02-15T01:41:00,0.6,東南東,1,東南東,9.9,96.3,0,1.5,2,3
103,2021-02-15T01:42:00,0.6,東,1,東南東,9.9,96.3,0,1.5,2,3
104,2021-02-15T01:43:00,0.6,東,1,東南東,9.9,96.3,0,1.5,2,3
105,2021-02-15T01:44:00,0.5,東,1,東南東,9.8,96.3,0.5,2,2.5,3.5
106,2021-02-15T01:45:00,0.5,東,1.1,東南東,9.8,96.3,0.5,2,2.5,3.5
107,2021-02-15T01:46:00,0.5,東,1.2,東南東,9.8,96.3,0.5,2,2.5,3.5
108,2021-02-15T01:47:00,0.5,東,1.2,東南東,9.9,96.3,0.5,2,2.5,3.5
109,2021-02-15T01:48:00,0.5,東,1.2,東南東,9.9,96.4,0.5,2,2.5,3.5
110,2021-02-15T01:49:00,0.5,東,1.2,東南東,9.9,96.4,0.5,2,2.5,3.5
111,2021-02-15T01:50:00,0.5,東,1.2,東南東,9.9,96.4,0.5,2,2.5,3.5
112,2021-02-15T01:51:00,0.5,東南東,1.2,東南東,10.1,96.6,0.5,1.5,2.5,3.5
113,2021-02-15T01:52:00,0.5,東南東,1.2,東南東,10,96.6,1,2,3,4
114,2021-02-15T01:53:00,0.6,東南東,1.3,東,9.9,96.4,1,2,3,4
115,2021-02-15T01:54:00,0.6,東南東,1.3,東,9.9,96.3,0.5,2,3,4
116,2021-02-15T01:55:00,0.6,東南東,1.3,東,9.9,96.3,0.5,2,3,4
117,2021-02-15T01:56:00,0.6,東南東,1.3,東,9.9,96.3,0.5,2,3,4
118,2021-02-15T01:57:00,0.5,東南東,1.3,東,9.9,96.4,0.5,2,3,4
119,2021-02-15T01:58:00,0.5,東南東,1.3,東,9.9,96.4,0.5,2,3,4
120,2021-02-15T01:59:00,0.5,南東,1.3,東,10.2,96.5,0.5,2,3,4
121,2021-02-15T02:00:00,0.5,南東,1.3,東,10.3,96.9,0.5,2,3,4
122,2021-02-15T02:01:00,0.5,南東,1.3,東,10,96.6,0.5,2,3,4
123,2021-02-15T02:02:00,0.5,南東,1.3,東,10,96.3,0,2,3,4
124,2021-02-15T02:03:00,0.4,南東,1.3,東南東,10,96.4,0,2,3,4
125,2021-02-15T02:04:00,0.3,南東,1.1,東南東,10,96.3,0,2,3,4
126,2021-02-15T02:05:00,0.3,南東,1,南東,9.9,96.3,0,2,3,4
127,2021-02-15T02:06:00,0.2,静穏,0.8,北北東,9.9,96.3,0,2,3,4
128,2021-02-15T02:07:00,0.3,南東,0.9,東,9.9,96.3,0,2,3,4
129,2021-02-15T02:08:00,0.3,東南東,0.9,東,9.9,96.4,0,2,3,4
130,2021-02-15T02:09:00,0.3,東南東,0.9,東,10.3,96.7,0,2,3,4
131,2021-02-15T02:10:00,0.4,東南東,0.9,東,10,96.6,0,2,3,4
132,2021-02-15T02:11:00,0.4,東,1,北東,10,96.4,0,2,3,4
133,2021-02-15T02:12:00,0.4,東,1,北東,9.9,96.3,0,2,3,4
134,2021-02-15T02:13:00,0.4,東,1,北東,9.9,96.3,0,2,3,4
135,2021-02-15T02:14:00,0.4,東,1,北東,9.9,96.3,0,2,3,4
136,2021-02-15T02:15:00,0.5,東,1.1,東北東,10,96.4,0,1.5,3,4
137,2021-02-15T02:16:00,0.5,東,1.1,東北東,9.9,96.4,0,1.5,3,4
138,2021-02-15T02:17:00,0.6,東北東,1.2,東,10,96.4,0,1.5,3,4
139,2021-02-15T02:18:00,0.6,東北東,1.5,東南東,10,96.4,0,1.5,3,4
140,2021-02-15T02:19:00,0.7,東,1.5,東南東,10,96.5,0,1.5,3,4
141,2021-02-15T02:20:00,0.8,東,1.6,東南東,10,96.5,0,1.5,3,4
142,2021-02-15T02:21:00,0.9,東,1.6,東南東,10,96.4,0,1.5,3,4
143,2021-02-15T02:22:00,0.9,東,1.6,東南東,10,96.4,0.5,2,3.5,4.5
144,2021-02-15T02:23:00,1,東,1.6,東南東,10,96.4,0.5,2,3.5,4.5
145,2021-02-15T02:24:00,1,東,1.6,東南東,10,96.4,0.5,2,3.5,4.5
146,2021-02-15T02:25:00,1,東,1.6,東南東,10,96.5,0.5,2,3.5,4.5
147,2021-02-15T02:26:00,1,東,1.6,東南東,10,96.4,0.5,2,3.5,4.5
148,2021-02-15T02:27:00,1,東南東,1.6,東南東,10,96.5,0.5,2,3.5,4.5
149,2021-02-15T02:28:00,1,東南東,1.6,東南東,10,96.5,0.5,2,3.5,4.5
150,2021-02-15T02:29:00,1,東南東,1.6,東南東,10,96.4,0.5,2,3.5,4.5
151,2021-02-15T02:30:00,1,東南東,1.5,東南東,10,96.4,0.5,2,3.5,4.5
152,2021-02-15T02:31:00,0.9,東南東,1.4,東南東,10,96.4,0.5,1.5,3.5,4.5
153,2021-02-15T02:32:00,0.9,東南東,1.5,東,10,96.4,0,1.5,3.5,4.5
154,2021-02-15T02:33:00,0.9,東南東,1.5,東,10,96.4,0,1.5,3.5,4.5
155,2021-02-15T02:34:00,1,東南東,1.5,東,10,96.4,0,1.5,3.5,4.5
156,2021-02-15T02:35:00,1,東南東,1.5,東,10,96.4,0,1.5,3.5,4.5
157,2021-02-15T02:36:00,1,東南東,1.5,東,10,96.5,0,1.5,3.5,4.5
158,2021-02-15T02:37:00,1.1,東南東,1.5,東,10,96.5,0,1.5,3.5,4.5
159,2021-02-15T02:38:00,1,東南東,1.5,東,10,96.5,0,1.5,3.5,4.5
160,2021-02-15T02:39:00,1,東南東,1.5,東,10,96.5,0,1.5,3.5,4.5
161,2021-02-15T02:40:00,1,東南東,1.5,東,10,96.5,0,1.5,3.5,4.5
162,2021-02-15T02:41:00,1.1,東南東,1.5,東,10,96.4,0,1.5,3.5,4.5
163,2021-02-15T02:42:00,1.1,東南東,1.8,東,10,96.4,0,1.5,3.5,4.5
164,2021-02-15T02:43:00,1.2,東南東,2.9,東南東,10.1,96.5,0,1.5,3.5,4.5
165,2021-02-15T02:44:00,1.2,東南東,2.9,東南東,10.2,96.6,0,1,3.5,4.5
166,2021-02-15T02:45:00,1.2,東南東,2.9,東南東,10.3,96.7,0,1,3.5,4.5
167,2021-02-15T02:46:00,1.3,東南東,2.9,東南東,10.3,96.7,0,1,3.5,4.5
168,2021-02-15T02:47:00,1.4,東南東,2.9,東南東,10.3,96.6,0,1,3.5,4.5
169,2021-02-15T02:48:00,1.5,東南東,2.9,東南東,10.2,96.6,0,1,3.5,4.5
170,2021-02-15T02:49:00,1.7,東,4.4,東,10.2,96.5,0,1,3.5,4.5
171,2021-02-15T02:50:00,1.8,東南東,4.4,東,10.3,96.6,0,1,3.5,4.5
172,2021-02-15T02:51:00,1.9,東南東,4.4,東,10.3,96.6,0,1,3.5,4.5
173,2021-02-15T02:52:00,2,東南東,4.4,東,10.4,96.5,0,0.5,3.5,4.5
174,2021-02-15T02:53:00,1.8,東南東,4.4,東,10.4,96.5,0,0.5,3.5,4.5
175,2021-02-15T02:54:00,1.7,東南東,4.4,東,10.5,96.6,0,0.5,3.5,4.5
176,2021-02-15T02:55:00,1.7,東南東,4.4,東,10.4,96.5,0,0.5,3.5,4.5
177,2021-02-15T02:56:00,1.6,東南東,4.4,東,10.4,96.2,0,0.5,3.5,4.5
178,2021-02-15T02:57:00,1.5,東南東,4.4,東,10.3,96.1,0,0.5,3.5,4.5
179,2021-02-15T02:58:00,1.4,南東,4.4,東,10.3,96,0,0.5,3.5,4.5
180,2021-02-15T02:59:00,1.2,南東,3.5,東南東,10.3,96,0,0.5,3.5,4.5
181,2021-02-15T03:00:00,1,南東,2.8,東南東,10.3,96,0,0.5,3.5,4.5
182,2021-02-15T03:01:00,0.8,南東,2.1,東南東,10.4,96,0,0.5,3.5,4.5
183,2021-02-15T03:02:00,0.7,南東,1.8,南東,10.3,96.1,0,0.5,3.5,4.5
184,2021-02-15T03:03:00,0.7,南東,1.8,南東,10.3,95.9,0,0.5,3.5,4.5
185,2021-02-15T03:04:00,0.8,南東,2.3,東南東,10.3,95.9,0,0.5,3.5,4.5
186,2021-02-15T03:05:00,0.8,南東,2.3,東南東,10.3,95.9,0,0.5,3.5,4.5
187,2021-02-15T03:06:00,0.9,南東,2.3,東南東,10.4,96,0,0.5,3.5,4.5
188,2021-02-15T03:07:00,1,東南東,2.8,東南東,10.4,96,0,0.5,3.5,4.5
189,2021-02-15T03:08:00,1,東南東,2.8,東南東,10.4,95.9,0,0.5,3.5,4.5
190,2021-02-15T03:09:00,1.1,東南東,2.8,東南東,10.4,95.9,0,0.5,3.5,4.5
191,2021-02-15T03:10:00,1.2,東,2.8,東南東,10.4,95.9,0,0.5,3.5,4.5
192,2021-02-15T03:11:00,1.3,東,2.8,東南東,10.4,95.9,0,0.5,3.5,4.5
193,2021-02-15T03:12:00,1.4,東,2.8,東南東,10.4,95.9,0,0.5,3.5,4.5
194,2021-02-15T03:13:00,1.5,東南東,2.8,東南東,10.4,95.9,0,0.5,3.5,4.5
195,2021-02-15T03:14:00,1.5,東,2.8,東南東,10.4,95.8,0,0.5,3.5,4.5
196,2021-02-15T03:15:00,1.5,東南東,2.8,東南東,10.4,95.7,0,0.5,3.5,4.5
197,2021-02-15T03:16:00,1.4,東南東,2.8,東南東,10.4,95.7,0,0.5,3.5,4.5
198,2021-02-15T03:17:00,1.4,東南東,2.7,東南東,10.4,95.7,0,0.5,3.5,4.5
199,2021-02-15T03:18:00,1.4,東南東,2.7,東南東,10.4,95.7,0,0.5,3.5,4.5
200,2021-02-15T03:19:00,1.4,東南東,2.7,東南東,10.4,95.6,0,0.5,3.5,4.5
201,2021-02-15T03:20:00,1.3,東南東,2.7,東南東,10.4,95.6,0.5,1,4,5
202,2021-02-15T03:21:00,1.3,東南東,2.7,東南東,10.4,95.6,0.5,1,4,5
203,2021-02-15T03:22:00,1.1,東南東,2.5,東,10.4,95.6,0.5,0.5,4,5
204,2021-02-15T03:23:00,1,東南東,2.4,東南東,10.5,95.7,0.5,0.5,4,5
205,2021-02-15T03:24:00,0.9,東南東,2.4,東南東,10.4,95.7,0.5,0.5,4,5
206,2021-02-15T03:25:00,0.8,東南東,2.1,東南東,10.4,95.6,0.5,0.5,4,5
207,2021-02-15T03:26:00,0.8,東南東,2.1,東南東,10.3,95.5,0.5,0.5,4,5
208,2021-02-15T03:27:00,0.7,東南東,2.1,東南東,10.4,95.6,0.5,0.5,4,5
209,2021-02-15T03:28:00,0.6,東南東,1.6,東南東,10.4,95.7,0.5,0.5,4,5
210,2021-02-15T03:29:00,0.6,南東,1.4,東北東,10.4,95.7,0.5,0.5,4,5
211,2021-02-15T03:30:00,0.6,南東,1.4,東北東,10.4,95.7,0,0.5,4,5
212,2021-02-15T03:31:00,0.7,南東,1.4,東北東,10.3,95.6,0,0.5,4,5
213,2021-02-15T03:32:00,0.7,南東,1.4,東北東,10.4,95.6,0,0.5,4,5
214,2021-02-15T03:33:00,0.7,南東,1.4,東北東,10.3,95.6,0,0.5,4,5
215,2021-02-15T03:34:00,0.7,南東,1.4,東北東,10.3,95.7,0,0.5,4,5
216,2021-02-15T03:35:00,0.7,南東,1.4,東北東,10.3,95.7,0,0.5,4,5
217,2021-02-15T03:36:00,0.7,南東,1.3,南南東,10.3,95.7,0,0.5,4,5
218,2021-02-15T03:37:00,0.7,南南東,1.4,南,10.4,95.8,0.5,1,4.5,5.5
219,2021-02-15T03:38:00,0.6,南南東,1.4,南,10.4,95.9,0.5,1,4.5,5.5
220,2021-02-15T03:39:00,0.6,南南東,1.4,南,10.4,95.8,0.5,1,4.5,5.5
221,2021-02-15T03:40:00,0.7,南南東,1.6,東南東,10.3,95.8,0.5,1,4.5,5.5
222,2021-02-15T03:41:00,0.6,南南東,1.6,東南東,10.3,95.7,0.5,1,4.5,5.5
223,2021-02-15T03:42:00,0.6,南南東,1.6,東南東,10.4,95.8,0.5,1,4.5,5.5
224,2021-02-15T03:43:00,0.7,南南東,1.6,東南東,10.4,95.9,0.5,1,4.5,5.5
225,2021-02-15T03:44:00,0.7,南南東,1.6,東南東,10.4,95.9,0.5,1,4.5,5.5
226,2021-02-15T03:45:00,0.7,南南東,1.6,東南東,10.4,95.8,1,1.5,5,6
227,2021-02-15T03:46:00,0.7,南南東,1.6,東南東,10.4,95.8,1,1.5,5,6
228,2021-02-15T03:47:00,0.6,南南東,1.6,東南東,10.4,95.9,0.5,1.5,5,6
229,2021-02-15T03:48:00,0.6,南南東,1.6,東南東,10.4,95.8,0.5,1.5,5,6
230,2021-02-15T03:49:00,0.6,南南東,1.6,東南東,10.4,95.8,0.5,1.5,5,6
231,2021-02-15T03:50:00,0.5,南,1.4,南,10.4,95.8,0.5,1.5,5,6
232,2021-02-15T03:51:00,0.5,南南西,1.4,南,10.3,95.8,0.5,1.5,5,6
233,2021-02-15T03:52:00,0.6,南南西,1.4,南,10.4,95.8,0.5,1.5,5,6
234,2021-02-15T03:53:00,0.5,南南西,1.1,西南西,10.3,95.9,0.5,1.5,5,6
235,2021-02-15T03:54:00,0.5,南西,1.1,西南西,10.4,95.8,1,2,5.5,6.5
236,2021-02-15T03:55:00,0.5,南西,1.1,西南西,10.4,95.9,0.5,2,5.5,6.5
237,2021-02-15T03:56:00,0.4,南西,1.1,西南西,10.5,96.1,0.5,2,5.5,6.5
238,2021-02-15T03:57:00,0.4,南西,1.1,西南西,10.4,95.9,0.5,2,5.5,6.5
239,2021-02-15T03:58:00,0.4,南西,1.1,西南西,10.4,95.9,0.5,2,5.5,6.5
240,2021-02-15T03:59:00,0.4,南南西,1.1,西南西,10.3,95.9,0.5,2,5.5,6.5
241,2021-02-15T04:00:00,0.5,南,1.5,南南東,10.3,95.8,0.5,2,5.5,6.5
242,2021-02-15T04:01:00,0.5,南南東,1.9,南東,10.3,95.8,0.5,2,5.5,6.5
243,2021-02-15T04:02:00,0.5,南東,1.9,南東,10.3,95.9,1,2.5,6,7
244,2021-02-15T04:03:00,0.6,南東,1.9,南東,10.3,95.9,1,2.5,6,7
245,2021-02-15T04:04:00,0.7,南東,2.1,東南東,10.3,96,0.5,2.5,6,7
246,2021-02-15T04:05:00,0.9,東南東,2.1,東南東,10.3,96,0.5,2.5,6,7
247,2021-02-15T04:06:00,1.1,南東,2.2,東南東,10.3,96,0.5,2.5,6,7
248,2021-02-15T04:07:00,1.2,南東,2.2,東南東,10.3,96,0.5,2.5,6,7
249,2021-02-15T04:08:00,1.4,南東,2.2,東南東,10.4,96.1,1,3,6.5,7.5
250,2021-02-15T04:09:00,1.5,南東,2.2,東南東,10.4,96.1,1,3,6.5,7.5
251,2021-02-15T04:10:00,1.5,東南東,2.2,東南東,10.4,96.1,1,3,6.5,7.5
252,2021-02-15T04:11:00,1.5,東南東,2.2,東南東,10.4,96.1,1,3,6.5,7.5
253,2021-02-15T04:12:00,1.5,東南東,2.2,東南東,10.3,96.1,1,3.5,7,8
254,2021-02-15T04:13:00,1.5,東南東,2.2,東南東,10.3,96,1,3.5,7,8
255,2021-02-15T04:14:00,1.4,東南東,2.2,東南東,10.3,96,1,3.5,7,8
256,2021-02-15T04:15:00,1.3,東,2.2,東南東,10.3,96,1,3.5,7,8
257,2021-02-15T04:16:00,1.2,東,2.1,東南東,10.3,96,1,3.5,7,8
258,2021-02-15T04:17:00,1.1,東,2.1,東南東,10.3,96,1.5,4,7.5,8.5
259,2021-02-15T04:18:00,1,東,1.8,東,10.3,96.1,1,4,7.5,8.5
260,2021-02-15T04:19:00,1,東,2,東南東,10.3,96.1,1,4,7.5,8.5
261,2021-02-15T04:20:00,0.9,東,2,東南東,10.3,96.1,1,3.5,7.5,8.5
262,2021-02-15T04:21:00,0.9,東,2,東南東,10.3,96.1,1,3.5,7.5,8.5
263,2021-02-15T04:22:00,0.9,東,2,東南東,10.3,96.1,1,4,8,9
264,2021-02-15T04:23:00,0.8,東,2,東南東,10.3,96.1,1,4,8,9
265,2021-02-15T04:24:00,0.7,東,2,東南東,10.3,96.1,1,4,8,9
266,2021-02-15T04:25:00,0.7,東,2,東南東,10.3,96.1,1,4,8,9
267,2021-02-15T04:26:00,0.6,東,2,東南東,10.3,96.2,1,4,8,9
268,2021-02-15T04:27:00,0.6,東,2,東南東,10.3,96.1,1,4.5,8.5,9.5
269,2021-02-15T04:28:00,0.5,東北東,2,東南東,10.3,96.1,1,4.5,8.5,9.5
270,2021-02-15T04:29:00,0.4,東北東,1.5,東南東,10.3,96.2,1,4.5,8.5,9.5
271,2021-02-15T04:30:00,0.4,東北東,1.3,東,10.3,96.1,1,4.5,8.5,9.5
272,2021-02-15T04:31:00,0.3,北東,1.3,東,10.2,96.1,1,4.5,8.5,9.5
273,2021-02-15T04:32:00,0.3,西北西,1.2,東,10.2,96.1,0.5,4.5,8.5,9.5
274,2021-02-15T04:33:00,0.3,西,1.2,東,10.2,96.1,1,5,9,10
275,2021-02-15T04:34:00,0.3,西,0.9,西南西,10.2,96.1,1,5,9,10
276,2021-02-15T04:35:00,0.2,静穏,0.9,西南西,10.2,96.1,1,5,9,10
277,2021-02-15T04:36:00,0.2,静穏,0.9,西南西,10.2,96.2,1,5,9,10
278,2021-02-15T04:37:00,0.3,南西,0.9,西南西,10.2,96.2,0.5,4.5,9,10
279,2021-02-15T04:38:00,0.3,南西,1,南東,10.3,96.3,0.5,4.5,9,10
280,2021-02-15T04:39:00,0.4,南南西,1.1,南東,10.3,96.4,1,5,9.5,10.5
281,2021-02-15T04:40:00,0.4,南南西,1.1,南東,10.5,96.5,1,5,9.5,10.5
282,2021-02-15T04:41:00,0.4,南,1.6,東南東,10.4,96.6,1,5,9.5,10.5
283,2021-02-15T04:42:00,0.5,南南東,1.7,南東,10.3,96.3,1,5,9.5,10.5
284,2021-02-15T04:43:00,0.7,南南東,1.9,東南東,10.3,96.1,0.5,5,9.5,10.5
285,2021-02-15T04:44:00,0.9,南東,1.9,東南東,10.3,96.2,1,5.5,10,11
286,2021-02-15T04:45:00,1,南東,1.9,東南東,10.3,96.3,1,5,10,11
287,2021-02-15T04:46:00,1.1,南東,1.9,東南東,10.3,96.3,1,5,10,11
288,2021-02-15T04:47:00,1.2,南東,1.9,東南東,10.3,96.3,1,5,10,11
289,2021-02-15T04:48:00,1.3,南東,1.9,東南東,10.4,96.4,1,5,10,11
290,2021-02-15T04:49:00,1.3,南東,1.9,東南東,10.4,96.4,0.5,5,10,11
291,2021-02-15T04:50:00,1.4,東南東,1.9,東南東,10.5,96.5,0.5,5,10,11
292,2021-02-15T04:51:00,1.3,東南東,1.9,東南東,10.4,96.4,1,5.5,10.5,11.5
293,2021-02-15T04:52:00,1.2,東南東,1.9,東南東,10.4,96.4,1,5.5,10.5,11.5
294,2021-02-15T04:53:00,1.1,東南東,1.9,東南東,10.4,96.4,1,5.5,10.5,11.5
295,2021-02-15T04:54:00,1,東南東,1.9,東南東,10.4,96.3,0.5,5,10.5,11.5
296,2021-02-15T04:55:00,0.8,東南東,1.9,東南東,10.3,96.3,1,5.5,11,12
297,2021-02-15T04:56:00,0.7,東南東,1.8,東南東,10.3,96.2,1,5.5,11,12
298,2021-02-15T04:57:00,0.6,東,1.7,東南東,10.3,96.2,1,5.5,11,12
299,2021-02-15T04:58:00,0.5,東,1.5,東南東,10.3,96.2,1,5.5,11,12
300,2021-02-15T04:59:00,0.4,東,1.1,東南東,10.2,96.1,1,5.5,11,12
301,2021-02-15T05:00:00,0.4,東北東,1,東南東,10.2,96.1,1.5,6,11.5,12.5
302,2021-02-15T05:01:00,0.4,北東,1,東南東,10.2,96.1,1,6,11.5,12.5
303,2021-02-15T05:02:00,0.4,北東,1,東南東,10.1,96.2,1,5.5,11.5,12.5
304,2021-02-15T05:03:00,0.4,北北東,1,北北西,10.2,96.2,1,5.5,11.5,12.5
305,2021-02-15T05:04:00,0.4,北北東,1,北北西,10.2,96.3,1,5.5,11.5,12.5
306,2021-02-15T05:05:00,0.4,北,1,北北西,10.2,96.3,1,6,12,13
307,2021-02-15T05:06:00,0.4,北,1,北北西,10.1,96.3,1,6,12,13
308,2021-02-15T05:07:00,0.5,北,1,北北西,10.1,96.3,1,6,12,13
309,2021-02-15T05:08:00,0.5,北,1,北北西,10.1,96.3,1,5.5,12,13
310,2021-02-15T05:09:00,0.5,北,1,北北西,10.1,96.3,1,5.5,12,13
311,2021-02-15T05:10:00,0.5,北,1,北北西,10.1,96.4,0.5,5.5,12,13
312,2021-02-15T05:11:00,0.5,北,1,北北西,10.1,96.4,1,6,12.5,13.5
313,2021-02-15T05:12:00,0.5,北北東,1,北東,10.1,96.4,1,5.5,12.5,13.5
314,2021-02-15T05:13:00,0.5,北北東,1,北東,10.1,96.4,1,5.5,12.5,13.5
315,2021-02-15T05:14:00,0.5,北北東,1,北東,10.1,96.5,1,5.5,12.5,13.5
316,2021-02-15T05:15:00,0.5,北北東,1,北東,10.1,96.5,0.5,5.5,12.5,13.5
317,2021-02-15T05:16:00,0.5,北東,1,北東,10.1,96.5,0.5,5.5,12.5,13.5
318,2021-02-15T05:17:00,0.6,北東,1.1,東北東,10.1,96.5,1,5.5,13,14
319,2021-02-15T05:18:00,0.6,北東,1.9,東北東,10.1,96.5,1,5.5,13,14
320,2021-02-15T05:19:00,0.7,北東,2.3,東北東,10.1,96.6,1,5.5,13,14
321,2021-02-15T05:20:00,0.9,北東,2.4,東北東,10.1,96.6,1,5.5,13,14
322,2021-02-15T05:21:00,1,北東,2.4,東北東,10.1,96.6,0.5,5.5,13,14
323,2021-02-15T05:22:00,1.1,東北東,2.4,東北東,10.1,96.6,0.5,5,13,14
324,2021-02-15T05:23:00,1.3,東北東,2.4,東北東,10.1,96.6,0.5,5,13,14
325,2021-02-15T05:24:00,1.4,東北東,2.4,東北東,10.1,96.6,1,5.5,13.5,14.5
326,2021-02-15T05:25:00,1.5,東北東,2.4,東北東,10.1,96.6,1,5.5,13.5,14.5
327,2021-02-15T05:26:00,1.6,東北東,2.5,東北東,10.1,96.6,1,5.5,13.5,14.5
328,2021-02-15T05:27:00,1.7,東北東,2.5,東北東,10.1,96.6,0.5,5,13.5,14.5
329,2021-02-15T05:28:00,1.8,東北東,2.5,東北東,10.1,96.6,0.5,5,13.5,14.5
330,2021-02-15T05:29:00,1.7,東,2.5,東北東,10.1,96.7,0.5,5,13.5,14.5
331,2021-02-15T05:30:00,1.7,東,2.5,東北東,10.2,96.7,0.5,5,13.5,14.5
332,2021-02-15T05:31:00,1.6,東,2.5,東北東,10.2,96.7,0.5,5,13.5,14.5
333,2021-02-15T05:32:00,1.6,東,2.5,東北東,10.2,96.7,0.5,5,13.5,14.5
334,2021-02-15T05:33:00,1.5,東,2.5,東北東,10.2,96.7,1,5,14,15
335,2021-02-15T05:34:00,1.4,東,2.5,東北東,10.2,96.7,0.5,5,14,15
336,2021-02-15T05:35:00,1.3,東,2.5,東北東,10.3,96.8,0.5,5,14,15
337,2021-02-15T05:36:00,1.1,東南東,2.4,東,10.5,97.1,0.5,5,14,15
338,2021-02-15T05:37:00,1,東南東,2.4,東,10.4,97,0.5,5,14,15
339,2021-02-15T05:38:00,0.8,東南東,2.4,東,10.3,96.8,0.5,5,14,15
340,2021-02-15T05:39:00,0.8,東南東,2.4,東,10.3,96.7,0.5,4.5,14,15
341,2021-02-15T05:40:00,0.7,東南東,2.4,東,10.3,96.7,0.5,4.5,14,15
342,2021-02-15T05:41:00,0.7,南東,2.4,東,10.3,96.7,0.5,4.5,14,15
343,2021-02-15T05:42:00,0.6,南東,1.4,東南東,10.3,96.7,0.5,4.5,14,15
344,2021-02-15T05:43:00,0.6,南東,1.7,東南東,10.3,96.7,0,4.5,14,15
345,2021-02-15T05:44:00,0.6,南東,1.8,南東,10.4,96.8,0,4,14,15
346,2021-02-15T05:45:00,0.7,南東,1.8,南東,10.4,96.9,0,4,14,15
347,2021-02-15T05:46:00,0.7,東南東,1.8,南東,10.3,96.7,0.5,4.5,14.5,15.5
348,2021-02-15T05:47:00,0.7,東南東,1.8,南東,10.3,96.7,0.5,4.5,14.5,15.5
349,2021-02-15T05:48:00,0.7,東南東,1.8,南東,10.2,96.6,0.5,4.5,14.5,15.5
350,2021-02-15T05:49:00,0.7,東,1.8,南東,10.2,96.5,0.5,4.5,14.5,15.5
351,2021-02-15T05:50:00,0.7,東,1.8,南東,10.2,96.5,0.5,4.5,14.5,15.5
352,2021-02-15T05:51:00,0.7,東北東,1.8,南東,10.2,96.5,1,4.5,15,16
353,2021-02-15T05:52:00,0.6,東北東,1.8,南東,10.3,96.6,1,4.5,15,16
354,2021-02-15T05:53:00,0.5,東北東,1.8,南東,10.4,96.7,1,4.5,15,16
355,2021-02-15T05:54:00,0.4,東北東,1.3,北東,10.5,96.9,1,4.5,15,16
356,2021-02-15T05:55:00,0.4,東北東,1.3,北東,10.4,96.8,1,4,15,16
357,2021-02-15T05:56:00,0.4,東北東,1.3,北東,10.4,96.7,0.5,4,15,16
358,2021-02-15T05:57:00,0.4,東北東,1.3,北東,10.4,96.7,0.5,4,15,16
359,2021-02-15T05:58:00,0.4,東北東,1.3,北東,10.4,96.6,0.5,4,15,16
360,2021-02-15T05:59:00,0.3,東北東,0.8,東,10.4,96.7,0.5,4,15,16
361,2021-02-15T06:00:00,0.3,東,0.8,東,10.4,96.6,0.5,3.5,15,16
362,2021-02-15T06:01:00,0.3,東,1,南東,10.4,96.6,0.5,4,15.5,16.5
363,2021-02-15T06:02:00,0.3,東,1,南東,10.4,96.6,0.5,4,15.5,16.5
364,2021-02-15T06:03:00,0.4,東南東,1.1,東南東,10.5,96.8,0.5,4,15.5,16.5
365,2021-02-15T06:04:00,0.5,東南東,1.4,南南東,10.4,96.7,0.5,4,15.5,16.5
366,2021-02-15T06:05:00,0.5,東南東,1.4,南南東,10.4,96.5,0.5,3.5,15.5,16.5
367,2021-02-15T06:06:00,0.6,南東,1.4,南南東,10.4,96.5,0.5,3.5,15.5,16.5
368,2021-02-15T06:07:00,0.6,南東,1.4,南南東,10.3,96.5,0.5,3.5,15.5,16.5
369,2021-02-15T06:08:00,0.6,南東,1.4,南南東,10.4,96.5,0.5,3.5,15.5,16.5
370,2021-02-15T06:09:00,0.7,南南東,1.4,南南東,10.4,96.5,0.5,3.5,15.5,16.5
371,2021-02-15T06:10:00,0.7,南南東,1.5,南東,10.4,96.6,1,4,16,17
372,2021-02-15T06:11:00,0.7,南南東,1.5,南東,10.5,96.6,0.5,3.5,16,17
373,2021-02-15T06:12:00,0.7,南東,1.5,南東,10.4,96.7,0.5,3.5,16,17
374,2021-02-15T06:13:00,0.7,南東,1.6,東南東,10.4,96.6,0.5,3.5,16,17
375,2021-02-15T06:14:00,0.8,南東,1.6,東南東,10.4,96.5,0.5,3.5,16,17
376,2021-02-15T06:15:00,0.8,南東,1.7,東南東,10.4,96.5,0.5,3.5,16,17
377,2021-02-15T06:16:00,0.8,南東,1.7,東南東,10.5,96.6,1,4,16.5,17.5
378,2021-02-15T06:17:00,0.8,南東,1.7,東南東,10.5,96.6,1,3.5,16.5,17.5
379,2021-02-15T06:18:00,0.8,南東,1.7,東南東,10.5,96.6,1,3.5,16.5,17.5
380,2021-02-15T06:19:00,0.9,南東,2.3,南東,10.5,96.6,1,3.5,16.5,17.5
381,2021-02-15T06:20:00,1,東南東,2.8,南東,10.5,96.6,0.5,3.5,16.5,17.5
382,2021-02-15T06:21:00,1.2,南東,2.8,南東,10.5,96.6,0.5,3.5,16.5,17.5
383,2021-02-15T06:22:00,1.3,南東,2.8,南東,10.5,96.6,0.5,3.5,16.5,17.5
384,2021-02-15T06:23:00,1.4,南東,2.8,南東,10.5,96.6,0.5,3.5,16.5,17.5
385,2021-02-15T06:24:00,1.4,南東,2.8,南東,10.6,96.6,1,3.5,17,18
386,2021-02-15T06:25:00,1.5,東南東,2.8,南東,10.6,96.6,1,3.5,17,18
387,2021-02-15T06:26:00,1.6,東南東,2.8,南東,10.6,96.6,0.5,3.5,17,18
388,2021-02-15T06:27:00,1.7,東南東,2.8,南東,10.6,96.6,0.5,3.5,17,18
389,2021-02-15T06:28:00,1.7,東南東,2.8,南東,10.6,96.5,0.5,3.5,17,18
390,2021-02-15T06:29:00,1.8,東南東,2.8,南東,10.6,96.5,0.5,3.5,17,18
391,2021-02-15T06:30:00,1.8,東南東,3,南東,10.6,96.5,0.5,3.5,17,18
392,2021-02-15T06:31:00,1.8,東南東,3,南東,10.6,96.4,0.5,3.5,17,18
393,2021-02-15T06:32:00,1.9,東南東,4.3,東南東,10.6,96.4,0.5,3.5,17,18
394,2021-02-15T06:33:00,2.1,東南東,4.7,東南東,10.7,96.4,0.5,3,17,18
395,2021-02-15T06:34:00,2.3,東南東,5.1,東南東,10.7,96.4,0,3,17,18
396,2021-02-15T06:35:00,2.4,東南東,5.1,東南東,10.8,96.3,0,3,17,18
397,2021-02-15T06:36:00,2.5,東南東,5.1,東南東,10.7,96.3,0,3,17,18
398,2021-02-15T06:37:00,2.5,東南東,5.1,東南東,10.8,96.2,0,3,17,18
399,2021-02-15T06:38:00,2.7,東南東,5.1,東南東,10.7,96.1,0,3,17,18
400,2021-02-15T06:39:00,2.7,東,5.1,東南東,10.8,96,0.5,3.5,17.5,18.5